Regional Weather Roundup
Issued by NWS Mobile, AL

Home | Current Version | Previous Version | Text Only | Print | Product List | Glossary On
Versions: 1 2 3 4 5 6 7 8 9 10 11 12 13 14 15 16 17 18 19 20 21 22 23 24 25 26 27
000
ASUS44 KMOB 291912
RWRMOB
REGIONAL WEATHER ROUNDUP
NATIONAL WEATHER SERVICE MOBILE AL
200 PM CDT FRI JUL 29 2016

NOTE: "FAIR" INDICATES FEW OR NO CLOUDS BELOW 12,000 FEET WITH NO
      SIGNIFICANT WEATHER AND/OR OBSTRUCTIONS TO VISIBILITY.

  * THESE STATIONS ARE PART OF THE UNIVERSITY OF SOUTH ALABAMA
    MESONET AND ARE NOT UNDER NWS OR FAA QUALITY CONTROL.

ALZ061>064-292000-
COASTAL ALABAMA

CITY           SKY/WX    TMP DP  RH WIND       PRES   REMARKS
MOBILE REG APT LGT RAIN  80  75  84 SE7       30.03F
BROOKLEY FIELD TSTM      79  73  82 SE8       30.04F
USA CAMPUS*    NOT AVBL
DOG RIVER*     NOT AVBL


CITY           SKY/WX    TMP DP  RH WIND       PRES   REMARKS
MOUNT VERNON*  NOT AVBL
SARALAND*      NOT AVBL
BAY MINETTE*   NOT AVBL
LOXLEY*        NOT AVBL
ROBERTSDALE*   NOT AVBL
FAIRHOPE*      NOT AVBL
ELBERTA*       NOT AVBL
FOLEY*         NOT AVBL
GRAND BAY*     NOT AVBL
DAUPHIN ISLND* NOT AVBL
BON SCOUR NWR* NOT AVBL
GULF SHORES    LGT RAIN  83  78  83 N5        30.04S

$$

ALZ051>060-292000-
INTERIOR SOUTHWEST AND SOUTH CENTRAL ALABAMA

CITY           SKY/WX    TMP DP  RH WIND       PRES   REMARKS
GREENVILLE     MOSUNNY   94  69  44 W9        30.02F HX  99
EVERGREEN      MOSUNNY   91  72  53 VRB3      30.02F HX  98
CASTLEBERRY*   NOT AVBL
ATMORE*        NOT AVBL
DIXIE*         NOT AVBL
ANDALUSIA/OPP  MOSUNNY   95  71  45 NW9       30.03S HX 102
ANDALUSIA*     NOT AVBL
FLORALA APT    TSTM      79  73  82 S12G20    30.05S
FLORALA*       NOT AVBL

$$

FLZ001>006-292000-
WESTERN FLORIDA PANHANDLE

CITY           SKY/WX    TMP DP  RH WIND       PRES   REMARKS
PENSACOLA      MOSUNNY   88  76  67 S7        30.03F HX  99
NAS PENSACOLA  PTSUNNY   92  75  57 SW12      30.03F HX 103
MILTON         CLOUDY    89  75  63 CALM      30.03F HX  99
WHTNG S FIELD  PTSUNNY   89  75  63 CALM      30.03F HX  99


CITY           SKY/WX    TMP DP  RH WIND       PRES   REMARKS
WALNUT HILL*   NOT AVBL
JAY*           NOT AVBL
DUKE FIELD     TSTM      84  73  70 SW15      30.05R
CRESTVIEW      MOSUNNY   85  74  69 S5        30.06S
VALPARAISO     PTSUNNY   91  75  60 VRB1      30.04S HX 101
DESTIN         MOSUNNY   94  79  61 VRB6      30.03F HX 111

$$

MSZ076-079-292000-
INTERIOR SOUTHEAST MISSISSIPPI

CITY           SKY/WX    TMP DP  RH WIND       PRES   REMARKS
LEAKESVILLE*   NOT AVBL
AGRICOLA*      NOT AVBL

$$

MARINE OBSERVATIONS

STATION/POSITION TIME  TEMP    WIND        PRES    WAVE
                       AIR SEA DIR/SP/G            HT/PER
                 (UTC) (F)     (DEG/KT/KT) (MB)    (FT/S)
PASCAGOULA       1800   88     210/  7/ 10 1017.3F
PETIT BOIS ISLND 1800   87     240/  4/  6 1018.3F
GRAND BAY        1745   87     210/  6     1019.0S
KATRINA CUT      1800   86     240/  8     1018.0F
CEDAR POINT      1800   85     250/  8     1017.6S
E DAUPHIN ISLAND 1800   86     210/  8/ 10 1017.3F
MIDDLE BAY LIGHT 1800   86     200/ 10     1017.6S
USCG MOBILE BAY  1800   79 86  300/  8/ 10 1018.2R
STATE DOCKS      1800   80 87              1017.4S
MEAHER PARK      1800   86     190/  8     1016.9F
WEEKS BAY        1700   90                   N/A
FORT MORGAN      1800   87     250/  7/  9 1017.1F
12 S ORANGE BCH  1850   85 88  220/  8/  8 1017.4F   2/ 6
PENSACOLA BAY    1800   86 88  310/  2/  6 1017.6F
64 S DAUPHIN ISL 1800   86 87  230/  6/ 10 1017.5R
67 S FORT MORGAN 1830   84     220/  6     1017.6F

$$

SELECTED LOCATIONS ACROSS THE REGION

CITY           SKY/WX    TMP DP  RH WIND       PRES   REMARKS
NEW ORLEANS    MOSUNNY   92  76  59 E8        30.02F HX 104
GULFPORT       HVY RAIN  77  73  87 S20G28    30.02F VSB 1/4
PASCAGOULA AP  SUNNY     90  78  68 S7        30.02F HX 104
PASCAGOULA*    NOT AVBL
HATTIESBURG    LGT RAIN  86  73  65 MISG      30.03F
LAUREL         MOSUNNY   88  73  62 NW9       30.05F HX  96
MERIDIAN       PTSUNNY   89  70  53 SW10      30.02F
JACKSON        MOSUNNY   88  73  61 W9        30.03F HX  95
MONTGOMERY     PTSUNNY   93  71  48 W8        30.01F HX 100
TROY           MOSUNNY   92  70  48 W9        30.04F HX  97
KINSTON*       NOT AVBL
GENEVA*        NOT AVBL
ASHFORD*       NOT AVBL
DOTHAN         MOSUNNY   93  69  45 W7        30.06F HX  98
PANAMA CITY    CLOUDY    85  74  69 N12G23    30.03R

$$





USA.gov is the U.S. government's official web portal to all federal, state and local government web resources and services.